STARLINK-36707, 67706

Orbit data source: Space-Track

STARLINK-36707, 67706 is a payload satellite owned by SpaceX/Seattle (US) in SSO that was launched on Sat, 07 Feb 2026 UTC via an FALCON 9 launch vehicle from the Air Force Western Test Range (AFWTR). Payload-class satellites include a variety of spacecraft equipped with specific instruments for various scientific and technological missions. These include communications satellites like Starlink; space stations such as the ISS; scientific satellites like the Hubble; Earth observation satellites from companies like Planet Labs, Umbra, and HawkEye 360; GPS; miniature CubeSats for education and research; and military/defense satellites.

Loading next visibility...
Identifier
67706, 2026-025P
Orbit
SSO
Country
Flag of USUS
Related business
Manufacturer
SpaceX/Seattle
Mission
Operational spacecraft
Bus & Motor
STARLINK V2MO, Unknown motor
Mass
575 kg wet, ~530 kg dry
Launch date (UTC)
2026-02-07 (2 months ago)
Launch vehicle
FALCON 9
Launch site
Air Force Western Test Range (AFWTR)
Object type
Payload
Rocket body
Debris
Shape & HBR
Unknown shape, 17.7 m
Radar Cross Section
RCS unknown

Expand to show TLE details & history
Last TLE update: 15 hours ago

TLE from 15 hours ago
0 STARLINK-36707
1 67706U 26025P   26103.74878876  .00023949  00000-0  74159-3 0  9994
2 67706  97.2895 215.9137 0000296 142.3457 217.7807 15.33454422 11387
Epoch: 2026-04-13T17:58Z
TLE epoch observation values (Epoch: 2026-04-13T17:58:15.348Z)
Latitude
Longitude
104.41482°
Altitude
468.787 km
Speed
7.632 km/s
True Right ascension
14h 23m 39s
True Declination
0° 00' 00"
Sunlit
Object was in full shadow at epoch
Visualization orbit readout
Latitude
Unknown
Longitude
Unknown
Altitude
Unknown
Speed
Unknown
Apparent Right ascension
Unknown
Apparent Declination
Unknown
Sunlit
N/A
Visualization observer readout
Local Sidereal Time
15:09:54
Azimuth
Unknown
Elevation
Unknown
Doppler factor
Unknown
Orbital elements
Apogee altitude
462.661 km
Perigee altitude
462.256 km
Semi-major axis
6,840.595 km
Eccentricity
0.00003
Inclination
97.2895°
RAAN
215.9137°
Arg. of periapsis
142.3457°
True anomaly
217.77862°
Mean anomaly
217.7807°
Eccentric anomaly
217.77966°
Mean motion
3.83621 °/min
Orbital period
93.84 mins
BSTAR
0.00074159
Loading maneuver chart data...
Computing Atmospheric mass density...
Loading historical data...
Loading historical data...
Loading historical data...
Loading historical data...
Loading historical data...
Loading historical data...
Loading historical data...

Documentation

Showing up to 5 results
|